Total_Precipitation_Accumulation
0.08 0.09 0.10 0.11 0.07 0.03 0.02 0.01 0.00 0.00 0.00 0.00 0.01 0.00 0.00 0.01 0.02 0.07 0.06 0.04 0.04 0.07 0.15 0.29 0.37 0.42 0.46 0.47 0.44 0.40 0.39 0.40 0.45 0.49 0.46 0.48 0.51 0.53 0.59 0.58 0.59 0.64 0.70 0.76 0.74 0.71 0.72 0.71 0.71
0.09 0.12 0.15 0.14 0.06 0.02 0.01 0.01 0.00 0.00 0.01 0.00 0.00 0.00 0.00 0.01 0.01 0.03 0.05 0.03 0.03 0.05 0.11 0.20 0.33 0.40 0.44 0.45 0.45 0.42 0.39 0.38 0.41 0.48 0.49 0.52 0.57 0.61 0.60 0.61 0.64 0.66 0.72 0.73 0.77 0.77 0.74 0.72 0.68
0.15 0.19 0.19 0.14 0.05 0.02 0.01 0.01 0.00 0.01 0.01 0.01 0.00 0.01 0.01 0.02 0.02 0.03 0.03 0.02 0.03 0.05 0.09 0.18 0.34 0.42 0.47 0.50 0.49 0.45 0.42 0.43 0.46 0.51 0.54 0.59 0.66 0.67 0.63 0.65 0.65 0.66 0.68 0.66 0.69 0.74 0.69 0.65 0.59
0.22 0.28 0.24 0.12 0.03 0.01 0.01 0.01 0.00 0.01 0.01 0.01 0.01 0.02 0.02 0.02 0.02 0.03 0.03 0.03 0.03 0.07 0.10 0.19 0.34 0.44 0.50 0.56 0.58 0.53 0.48 0.49 0.53 0.57 0.62 0.64 0.66 0.66 0.65 0.64 0.57 0.56 0.61 0.62 0.63 0.67 0.65 0.63 0.61
0.31 0.30 0.22 0.10 0.02 0.01 0.01 0.01 0.01 0.02 0.03 0.02 0.02 0.02 0.04 0.03 0.03 0.04 0.04 0.04 0.04 0.07 0.12 0.19 0.35 0.46 0.51 0.58 0.63 0.60 0.56 0.55 0.56 0.61 0.67 0.69 0.68 0.67 0.64 0.64 0.57 0.52 0.50 0.55 0.60 0.64 0.65 0.68 0.62
0.40 0.31 0.16 0.05 0.02 0.01 0.01 0.02 0.02 0.03 0.03 0.04 0.05 0.05 0.06 0.06 0.07 0.07 0.06 0.06 0.06 0.08 0.12 0.21 0.39 0.49 0.53 0.59 0.66 0.65 0.63 0.62 0.62 0.65 0.71 0.75 0.73 0.70 0.65 0.60 0.58 0.55 0.49 0.49 0.53 0.59 0.68 0.72 0.64
0.41 0.28 0.11 0.03 0.02 0.01 0.01 0.02 0.03 0.04 0.05 0.06 0.08 0.08 0.07 0.10 0.10 0.10 0.10 0.10 0.10 0.11 0.14 0.23 0.37 0.49 0.58 0.67 0.72 0.71 0.71 0.70 0.68 0.68 0.73 0.78 0.75 0.74 0.69 0.62 0.57 0.55 0.53 0.52 0.49 0.52 0.61 0.66 0.64
0.43 0.36 0.16 0.05 0.03 0.03 0.01 0.02 0.03 0.05 0.06 0.06 0.08 0.10 0.09 0.10 0.11 0.14 0.16 0.17 0.17 0.17 0.18 0.24 0.36 0.47 0.57 0.67 0.72 0.74 0.76 0.80 0.75 0.71 0.67 0.64 0.67 0.74 0.70 0.57 0.54 0.53 0.53 0.53 0.50 0.48 0.51 0.53 0.54
0.55 0.51 0.22 0.07 0.04 0.03 0.02 0.02 0.03 0.05 0.06 0.07 0.07 0.09 0.10 0.11 0.15 0.19 0.27 0.32 0.30 0.27 0.26 0.29 0.39 0.50 0.63 0.70 0.69 0.76 0.83 0.86 0.82 0.76 0.64 0.62 0.62 0.62 0.61 0.50 0.47 0.53 0.55 0.55 0.56 0.56 0.51 0.45 0.38
0.71 0.53 0.21 0.08 0.06 0.05 0.05 0.05 0.05 0.06 0.08 0.09 0.08 0.09 0.12 0.16 0.22 0.24 0.28 0.32 0.36 0.33 0.33 0.34 0.42 0.53 0.66 0.69 0.73 0.84 0.88 0.83 0.78 0.71 0.67 0.64 0.62 0.59 0.54 0.49 0.47 0.52 0.55 0.57 0.61 0.60 0.55 0.48 0.39
0.66 0.48 0.21 0.10 0.08 0.10 0.09 0.07 0.06 0.08 0.09 0.12 0.13 0.11 0.15 0.24 0.30 0.31 0.31 0.35 0.37 0.39 0.40 0.38 0.47 0.58 0.69 0.75 0.74 0.81 0.89 0.91 0.87 0.82 0.78 0.74 0.75 0.71 0.60 0.53 0.48 0.53 0.53 0.55 0.57 0.57 0.55 0.56 0.55
0.60 0.40 0.26 0.16 0.12 0.14 0.15 0.12 0.10 0.10 0.10 0.11 0.17 0.17 0.18 0.24 0.30 0.34 0.38 0.43 0.48 0.48 0.48 0.49 0.54 0.67 0.78 0.81 0.77 0.78 0.79 0.82 0.85 0.87 0.89 0.88 0.82 0.71 0.60 0.52 0.45 0.44 0.45 0.49 0.53 0.53 0.51 0.56 0.60
0.55 0.37 0.27 0.21 0.17 0.17 0.19 0.18 0.15 0.13 0.10 0.12 0.21 0.25 0.27 0.28 0.34 0.39 0.45 0.51 0.53 0.55 0.56 0.58 0.60 0.67 0.82 0.91 0.87 0.82 0.81 0.77 0.81 0.90 0.95 0.89 0.83 0.72 0.64 0.57 0.53 0.47 0.44 0.46 0.49 0.52 0.52 0.53 0.59
0.51 0.41 0.32 0.27 0.25 0.23 0.25 0.23 0.18 0.17 0.13 0.16 0.25 0.30 0.34 0.36 0.41 0.43 0.47 0.50 0.54 0.58 0.64 0.69 0.71 0.74 0.84 0.91 0.88 0.81 0.85 0.89 0.89 0.86 0.88 0.92 0.89 0.82 0.77 0.70 0.65 0.59 0.53 0.52 0.55 0.58 0.58 0.55 0.54
0.50 0.55 0.47 0.35 0.32 0.32 0.33 0.35 0.24 0.17 0.17 0.23 0.28 0.31 0.37 0.42 0.45 0.46 0.47 0.50 0.53 0.62 0.70 0.77 0.85 0.86 0.88 0.91 0.94 0.91 0.88 0.90 0.88 0.83 0.83 0.87 0.91 0.89 0.79 0.75 0.70 0.67 0.64 0.61 0.57 0.56 0.62 0.58 0.54
0.74 0.84 0.71 0.41 0.32 0.37 0.48 0.46 0.22 0.19 0.21 0.28 0.30 0.35 0.38 0.40 0.45 0.50 0.53 0.59 0.67 0.75 0.80 0.86 0.94 0.95 0.96 0.97 1.01 1.03 1.00 0.97 0.91 0.85 0.86 0.84 0.88 0.96 0.93 0.84 0.79 0.76 0.77 0.75 0.69 0.59 0.58 0.59 0.58
1.07 0.97 0.62 0.36 0.30 0.39 0.49 0.43 0.24 0.22 0.26 0.30 0.32 0.38 0.41 0.44 0.49 0.50 0.55 0.63 0.71 0.78 0.85 0.95 1.00 1.00 1.01 1.03 1.13 1.15 1.14 1.07 1.01 0.95 0.88 0.88 0.93 0.94 0.95 0.92 0.90 0.93 0.93 0.87 0.83 0.73 0.72 0.68 0.66
0.85 0.65 0.48 0.37 0.32 0.37 0.41 0.33 0.26 0.26 0.28 0.29 0.31 0.35 0.40 0.43 0.45 0.51 0.59 0.69 0.81 0.88 0.91 1.00 1.07 1.15 1.20 1.26 1.28 1.35 1.31 1.21 1.12 1.02 0.94 0.85 0.86 0.93 0.99 0.95 0.95 0.97 0.99 0.98 1.02 0.96 0.86 0.79 0.78
0.59 0.55 0.46 0.35 0.30 0.38 0.39 0.31 0.28 0.29 0.29 0.29 0.33 0.34 0.38 0.40 0.41 0.46 0.56 0.68 0.83 0.92 1.00 1.05 1.10 1.21 1.31 1.33 1.24 1.23 1.22 1.20 1.17 1.10 1.03 0.98 0.91 0.90 0.99 0.99 0.96 0.98 0.94 0.88 0.85 0.95 0.98 0.91 0.87
0.74 0.72 0.51 0.38 0.32 0.39 0.40 0.33 0.31 0.34 0.33 0.30 0.32 0.35 0.39 0.38 0.40 0.45 0.52 0.63 0.80 0.93 1.02 1.10 1.08 1.18 1.25 1.21 1.21 1.19 1.23 1.25 1.26 1.25 1.18 1.05 0.96 0.91 0.95 1.01 0.98 0.92 0.91 0.86 0.78 0.78 0.85 0.86 0.85
0.82 0.66 0.49 0.47 0.48 0.51 0.50 0.44 0.31 0.34 0.34 0.31 0.28 0.31 0.36 0.36 0.37 0.42 0.50 0.59 0.69 0.85 0.97 1.12 1.09 1.09 1.24 1.30 1.45 1.50 1.55 1.55 1.47 1.36 1.27 1.09 0.97 0.89 0.89 0.98 1.05 1.00 0.90 0.83 0.79 0.77 0.76 0.78 0.77
0.80 0.47 0.48 0.57 0.80 0.93 0.73 0.75 0.35 0.35 0.39 0.34 0.31 0.31 0.31 0.33 0.36 0.42 0.46 0.54 0.65 0.74 0.89 1.06 1.12 1.10 1.25 1.40 1.44 1.39 1.35 1.35 1.24 1.19 1.18 1.09 1.03 0.96 0.93 1.00 1.07 1.10 0.98 0.83 0.79 0.80 0.78 0.79 0.81
0.62 0.49 0.62 0.76 0.96 1.12 0.81 0.84 0.48 0.36 0.43 0.39 0.33 0.33 0.29 0.27 0.30 0.39 0.45 0.50 0.61 0.73 0.91 1.06 1.09 1.17 1.29 1.38 1.42 1.41 1.34 1.29 1.33 1.33 1.28 1.27 1.12 1.04 1.00 1.02 1.06 1.07 1.03 0.92 0.82 0.79 0.82 0.81 0.81
0.65 0.77 0.92 1.11 1.57 1.74 0.74 0.65 0.54 0.41 0.41 0.38 0.33 0.33 0.29 0.25 0.27 0.35 0.45 0.52 0.62 0.76 0.92 1.09 1.16 1.19 1.29 1.40 1.49 1.47 1.39 1.39 1.47 1.44 1.42 1.40 1.36 1.23 1.12 1.09 1.06 1.05 1.01 0.97 0.90 0.84 0.85 0.83 0.81
1.05 1.53 2.25 2.37 2.36 1.40 0.40 0.43 0.47 0.32 0.28 0.29 0.30 0.33 0.30 0.26 0.28 0.35 0.44 0.57 0.67 0.75 0.86 1.05 1.18 1.16 1.16 1.31 1.45 1.45 1.46 1.52 1.50 1.50 1.44 1.43 1.39 1.28 1.17 1.09 1.05 1.04 1.02 0.97 0.94 0.91 0.90 0.91 0.93
1.05 1.33 1.80 1.68 1.10 0.54 0.34 0.43 0.39 0.23 0.19 0.20 0.22 0.26 0.25 0.27 0.31 0.36 0.41 0.54 0.67 0.75 0.83 0.96 1.11 1.13 1.10 1.17 1.28 1.39 1.45 1.58 1.63 1.67 1.60 1.51 1.43 1.33 1.23 1.19 1.17 1.10 1.05 1.06 1.02 0.95 0.91 0.91 0.92
0.92 0.99 0.91 1.23 0.88 0.54 0.42 0.35 0.27 0.17 0.16 0.17 0.19 0.23 0.22 0.23 0.28 0.36 0.39 0.47 0.64 0.75 0.78 0.79 0.99 1.07 1.08 1.12 1.18 1.29 1.37 1.41 1.45 1.56 1.65 1.60 1.51 1.43 1.36 1.28 1.26 1.22 1.18 1.19 1.19 1.10 0.98 0.95 0.90
0.76 0.91 1.15 1.68 1.43 0.76 0.40 0.27 0.28 0.23 0.21 0.18 0.19 0.22 0.24 0.27 0.29 0.38 0.39 0.44 0.57 0.72 0.77 0.72 0.87 0.99 1.00 1.07 1.14 1.19 1.28 1.33 1.34 1.39 1.46 1.51 1.52 1.48 1.46 1.42 1.32 1.25 1.21 1.24 1.30 1.24 1.09 1.04 0.99
0.83 1.11 1.44 1.54 1.18 0.86 0.55 0.40 0.32 0.30 0.27 0.23 0.22 0.24 0.27 0.32 0.36 0.44 0.46 0.50 0.57 0.69 0.75 0.75 0.80 0.99 1.08 1.08 1.11 1.16 1.23 1.32 1.38 1.40 1.37 1.33 1.40 1.49 1.47 1.43 1.36 1.29 1.27 1.26 1.27 1.25 1.23 1.20 1.12
0.76 0.91 1.14 1.54 1.19 0.71 0.60 0.43 0.26 0.27 0.26 0.24 0.27 0.26 0.27 0.29 0.34 0.40 0.46 0.53 0.64 0.76 0.81 0.77 0.80 0.94 1.12 1.16 1.09 1.13 1.20 1.29 1.37 1.37 1.33 1.32 1.26 1.29 1.39 1.44 1.43 1.35 1.28 1.31 1.37 1.32 1.28 1.28 1.25